This is the latest recevied weather packets stored in our database for station/object I3RKE-10. If no packets are shown the sender has not sent any weather packets the latest 10 day(s).
| Time | Temp. | Humidity | Pressure | Rain* | Wind** | Luminosity | Snow |
|---|---|---|---|---|---|---|---|
| 1777700477 | 13.33° C | 52% | 1019.6 hPa | - | - | - | - |
| 1777699577 | 12.22° C | 53% | 1019.7 hPa | - | - | - | - |
| 1777698677 | 11.67° C | 55% | 1019.7 hPa | - | - | - | - |
| 1777697777 | 11.11° C | 56% | 1019.7 hPa | - | - | - | - |
| 1777696877 | 10.56° C | 57% | 1019.8 hPa | - | - | - | - |
| 1777695976 | 10° C | 59% | 1019.7 hPa | - | - | - | - |
| 1777695076 | 10° C | 58% | 1019.6 hPa | - | - | - | - |
| 1777694176 | 10° C | 57% | 1019.7 hPa | - | - | - | - |
| 1777693276 | 10° C | 58% | 1019.7 hPa | - | - | - | - |
| 1777692375 | 10° C | 58% | 1019.7 hPa | - | - | - | - |
| 1777691476 | 10° C | 57% | 1019.7 hPa | - | - | - | - |
| 1777690575 | 10° C | 57% | 1019.9 hPa | - | - | - | - |
| 1777689675 | 10° C | 56% | 1019.9 hPa | - | - | - | - |
| 1777688775 | 10.56° C | 56% | 1019.9 hPa | - | - | - | - |
| 1777687875 | 10° C | 57% | 1020 hPa | - | - | - | - |
| 1777686975 | 10° C | 56% | 1019.9 hPa | - | - | - | - |
| 1777686075 | 10.56° C | 55% | 1019.9 hPa | - | - | - | - |
| 1777685216 | 11.11° C | 53% | 1019.9 hPa | - | - | - | - |
| 1777685175 | 11.11° C | 53% | 1019.9 hPa | - | - | - | - |
| 1777684275 | 11.11° C | 53% | 1019.9 hPa | - | - | - | - |
| 1777683409 | 11.11° C | 52% | 1019.8 hPa | - | - | - | - |
| 1777683375 | 11.11° C | 52% | 1019.8 hPa | - | - | - | - |
| 1777682475 | 11.11° C | 52% | 1019.8 hPa | - | - | - | - |
| 1777681575 | 11.11° C | 52% | 1019.8 hPa | - | - | - | - |
| 1777680674 | 11.11° C | 52% | 1019.9 hPa | - | - | - | - |
* Rain since midnight (hover to see other rain measurements)
** Current wind speed in m/s (hover to see current wind gust speed)